,,,PA_Meas_PMT16A,,PR_Meas_QMR101_102,,RH_Meas_QMH101,,SR_Meas_QMS101,,TA_Meas_QMH101,,GenWind,,GenWind,
date,time,status,PA,status,PR,status,RH,status,SR,status,TA,status,DirAvg,status,SpdAvg,
2011-11-10, 00:00:04,VALID,1000.62,VALID,0,VALID,93.4323,VALID,0,VALID,22.724,VALID,106,VALID,0.646484,
2011-11-10, 00:01:04,VALID,1000.61,VALID,0,VALID,93.4781,VALID,0,VALID,22.7435,VALID,106,VALID,0.429688,
2011-11-10, 00:02:04,VALID,1000.56,VALID,0,VALID,93.5086,VALID,0,VALID,22.7647,VALID,106,VALID,0.350391,
2011-11-10, 00:03:04,VALID,1000.56,VALID,0,VALID,93.5086,VALID,0,VALID,22.7647,VALID,106,VALID,0.0757812,
2011-11-10, 00:04:04,VALID,1000.52,VALID,0,VALID,93.4934,VALID,0,VALID,22.7452,VALID,106,VALID,0.384766,
2011-11-10, 00:05:04,VALID,1000.53,VALID,0,VALID,93.501,VALID,0,VALID,22.7257,VALID,106,VALID,0.355078,
2011-11-10, 00:06:04,VALID,1000.49,VALID,0,VALID,93.4934,VALID,0,VALID,22.7647,VALID,106,VALID,0.464844,
2011-11-10, 00:07:04,VALID,1000.44,VALID,0,VALID,93.4552,VALID,0,VALID,22.7435,VALID,106,VALID,0.54375,
2011-11-10, 00:08:04,VALID,1000.44,VALID,0,VALID,93.4018,VALID,0,VALID,22.763,VALID,106,VALID,0.525391,
2011-11-10, 00:09:04,VALID,1000.45,VALID,0,VALID,93.3103,VALID,0,VALID,22.7452,VALID,106,VALID,0.235938,
2011-11-10, 00:10:04,VALID,1000.44,VALID,0,VALID,93.1882,VALID,0,VALID,22.724,VALID,106,VALID,0.332031,
2011-11-10, 00:11:04,VALID,1000.44,VALID,0,VALID,93.1119,VALID,0,VALID,22.7045,VALID,106,VALID,0.633984,
2011-11-10, 00:12:04,VALID,1000.47,VALID,0,VALID,93.0508,VALID,0,VALID,22.7062,VALID,106,VALID,0.665234,
2011-11-10, 00:13:04,VALID,1000.44,VALID,0,VALID,93.0203,VALID,0,VALID,22.6655,VALID,64,VALID,0.758984,
2011-11-10, 00:14:04,VALID,1000.44,VALID,0,VALID,93.028,VALID,0,VALID,22.646,VALID,64,VALID,0.636719,
2011-11-10, 00:15:04,VALID,1000.43,VALID,0,VALID,93.0356,VALID,0,VALID,22.6477,VALID,64,VALID,0.571875,
2011-11-10, 00:16:04,VALID,1000.41,VALID,0,VALID,93.028,VALID,0,VALID,22.6477,VALID,64,VALID,0.691797,
2011-11-10, 00:17:04,VALID,1000.38,VALID,0,VALID,93.0585,VALID,0.104696,VALID,22.6069,VALID,64,VALID,0.729297,
2011-11-10, 00:18:04,VALID,1000.35,VALID,0,VALID,93.0508,VALID,0,VALID,22.5874,VALID,64,VALID,0.907812,
2011-11-10, 00:19:04,VALID,1000.31,VALID,0,VALID,93.0814,VALID,0,VALID,22.5484,VALID,64,VALID,0.901172,
2011-11-10, 00:20:04,VALID,1000.3,VALID,0,VALID,93.1119,VALID,0,VALID,22.5289,VALID,64,VALID,0.732422,
2011-11-10, 00:21:04,VALID,1000.27,VALID,0,VALID,93.15,VALID,0.104696,VALID,22.5289,VALID,64,VALID,0.692187,
2011-11-10, 00:22:04,VALID,1000.26,VALID,0,VALID,93.2263,VALID,0,VALID,22.5289,VALID,64,VALID,0.582422,
2011-11-10, 00:23:04,VALID,1000.24,VALID,0,VALID,93.2568,VALID,0,VALID,22.5306,VALID,64,VALID,0.429688,
2011-11-10, 00:24:04,VALID,1000.22,VALID,0,VALID,93.3026,VALID,0,VALID,22.5306,VALID,64,VALID,0.482031,
2011-11-10, 00:25:04,VALID,1000.2,VALID,0,VALID,93.3331,VALID,0,VALID,22.5306,VALID,64,VALID,0.457031,
2011-11-10, 00:26:04,VALID,1000.16,VALID,0,VALID,93.3789,VALID,0,VALID,22.5714,VALID,64,VALID,0.490234,
2011-11-10, 00:27:04,VALID,1000.16,VALID,0,VALID,93.4018,VALID,0,VALID,22.5696,VALID,64,VALID,0.260156,
2011-11-10, 00:28:04,VALID,1000.11,VALID,0,VALID,93.4323,VALID,0,VALID,22.5696,VALID,64,VALID,0.276953,
2011-11-10, 00:29:04,VALID,1000.12,VALID,0,VALID,93.4705,VALID,0,VALID,22.5892,VALID,64,VALID,0.141016,
2011-11-10, 00:30:04,VALID,1000.07,VALID,0,VALID,93.4628,VALID,0,VALID,22.5892,VALID,64,VALID,0.0421875,
2011-11-10, 00:31:04,VALID,1000.06,VALID,0,VALID,93.4628,VALID,0,VALID,22.5892,VALID,64,VALID,0,
2011-11-10, 00:32:04,VALID,1000.04,VALID,0,VALID,93.4857,VALID,0,VALID,22.5892,VALID,64,VALID,0,
2011-11-10, 00:33:04,VALID,1000.02,VALID,0,VALID,93.4857,VALID,0,VALID,22.5696,VALID,64,VALID,0,
2011-11-10, 00:34:04,VALID,1000,VALID,0,VALID,93.5086,VALID,0,VALID,22.5696,VALID,64,VALID,0,
2011-11-10, 00:35:04,VALID,999.995,VALID,0,VALID,93.5239,VALID,0,VALID,22.5714,VALID,64,VALID,0.00195313,
2011-11-10, 00:36:04,VALID,999.975,VALID,0,VALID,93.5391,VALID,0,VALID,22.5696,VALID,64,VALID,0.200391,
2011-11-10, 00:37:04,VALID,999.995,VALID,0,VALID,93.5697,VALID,0,VALID,22.5696,VALID,64,VALID,0,
2011-11-10, 00:38:04,VALID,999.965,VALID,0,VALID,93.6078,VALID,0.104696,VALID,22.6087,VALID,64,VALID,0.545703,
2011-11-10, 00:39:04,VALID,1000,VALID,0,VALID,93.6078,VALID,0,VALID,22.6282,VALID,64,VALID,0.658594,
2011-11-10, 00:40:04,VALID,999.979,VALID,0,VALID,93.5849,VALID,0,VALID,22.6672,VALID,64,VALID,0.788281,
2011-11-10, 00:41:04,VALID,999.985,VALID,0,VALID,93.4781,VALID,0.104696,VALID,22.6477,VALID,64,VALID,0.808984,
2011-11-10, 00:42:04,VALID,999.999,VALID,0,VALID,93.4171,VALID,0,VALID,22.6672,VALID,64,VALID,0.7125,
2011-11-10, 00:43:04,VALID,999.936,VALID,0,VALID,93.3179,VALID,0,VALID,22.6672,VALID,64,VALID,0.692187,
2011-11-10, 00:44:04,VALID,999.966,VALID,0,VALID,93.2568,VALID,0,VALID,22.6867,VALID,64,VALID,0.676562,
2011-11-10, 00:45:04,VALID,999.951,VALID,0,VALID,93.1958,VALID,0,VALID,22.7257,VALID,64,VALID,0.54375,
2011-11-10, 00:46:04,VALID,999.906,VALID,0,VALID,93.1271,VALID,0,VALID,22.685,VALID,64,VALID,0.5875,
2011-11-10, 00:47:04,VALID,999.902,VALID,0,VALID,93.0051,VALID,0,VALID,22.6672,VALID,64,VALID,0.839453,
2011-11-10, 00:48:04,VALID,999.874,VALID,0,VALID,92.9135,VALID,0,VALID,22.6069,VALID,64,VALID,0.853906,
2011-11-10, 00:49:04,VALID,999.88,VALID,0,VALID,92.8677,VALID,0,VALID,22.5892,VALID,64,VALID,0.765625,
2011-11-10, 00:50:04,VALID,999.865,VALID,0,VALID,92.8525,VALID,0,VALID,22.5306,VALID,64,VALID,0.785547,
2011-11-10, 00:51:04,VALID,999.853,VALID,0,VALID,92.8372,VALID,0,VALID,22.4916,VALID,64,VALID,0.811328,
2011-11-10, 00:52:04,VALID,999.85,VALID,0,VALID,92.9135,VALID,0.104696,VALID,22.4526,VALID,64,VALID,0.697266,
2011-11-10, 00:53:04,VALID,999.849,VALID,0,VALID,93.089,VALID,0,VALID,22.4526,VALID,64,VALID,0.669531,
2011-11-10, 00:54:04,VALID,999.84,VALID,0,VALID,93.2111,VALID,0,VALID,22.4526,VALID,64,VALID,0.544141,
2011-11-10, 00:55:04,VALID,999.848,VALID,0,VALID,93.2797,VALID,0,VALID,22.4526,VALID,64,VALID,0.54375,
2011-11-10, 00:56:04,VALID,999.864,VALID,0,VALID,93.3408,VALID,0.104696,VALID,22.4331,VALID,64,VALID,0.499219,
2011-11-10, 00:57:04,VALID,999.876,VALID,0,VALID,93.4094,VALID,0,VALID,22.3924,VALID,64,VALID,0.578125,
2011-11-10, 00:58:04,VALID,999.878,VALID,0,VALID,93.44,VALID,0.104696,VALID,22.4136,VALID,64,VALID,0.294531,
2011-11-10, 00:59:04,VALID,999.838,VALID,0,VALID,93.501,VALID,0,VALID,22.4331,VALID,64,VALID,0.0636719,
2011-11-10, 01:00:04,VALID,999.832,VALID,0,VALID,93.562,VALID,0,VALID,22.3941,VALID,64,VALID,0.189844,
2011-11-10, 01:01:04,VALID,999.832,VALID,0,VALID,93.5849,VALID,0,VALID,22.3941,VALID,64,VALID,0.28125,
2011-11-10, 01:02:04,VALID,999.833,VALID,0,VALID,93.5849,VALID,0.104696,VALID,22.3746,VALID,64,VALID,0.314453,
2011-11-10, 01:03:04,VALID,999.801,VALID,0,VALID,93.6154,VALID,0,VALID,22.3551,VALID,64,VALID,0.221484,
2011-11-10, 01:04:04,VALID,999.806,VALID,0,VALID,93.6231,VALID,0,VALID,22.3161,VALID,64,VALID,0.219922,
2011-11-10, 01:05:04,VALID,999.804,VALID,0,VALID,93.646,VALID,0,VALID,22.2949,VALID,64,VALID,0.190234,
2011-11-10, 01:06:04,VALID,999.777,VALID,0,VALID,93.6917,VALID,0.104696,VALID,22.3161,VALID,64,VALID,0.2125,
2011-11-10, 01:07:04,VALID,999.776,VALID,0,VALID,93.7375,VALID,0,VALID,22.3551,VALID,64,VALID,0.333203,
2011-11-10, 01:08:04,VALID,999.774,VALID,0,VALID,93.7909,VALID,0,VALID,22.3746,VALID,64,VALID,0.271484,
2011-11-10, 01:09:04,VALID,999.784,VALID,0,VALID,93.8214,VALID,0,VALID,22.3746,VALID,64,VALID,0.190234,
2011-11-10, 01:10:04,VALID,999.808,VALID,0,VALID,93.8443,VALID,0.104696,VALID,22.3941,VALID,64,VALID,0.0335938,
2011-11-10, 01:11:04,VALID,999.798,VALID,0,VALID,93.8443,VALID,0,VALID,22.3534,VALID,64,VALID,0.185547,
2011-11-10, 01:12:04,VALID,999.806,VALID,0,VALID,93.852,VALID,0,VALID,22.3339,VALID,64,VALID,0.462109,
2011-11-10, 01:13:04,VALID,999.809,VALID,0,VALID,93.8748,VALID,0,VALID,22.3551,VALID,64,VALID,0.208594,
2011-11-10, 01:14:04,VALID,999.821,VALID,0,VALID,93.8825,VALID,0.104696,VALID,22.3144,VALID,64,VALID,0.0773437,
2011-11-10, 01:15:04,VALID,999.827,VALID,0,VALID,93.8748,VALID,0.104696,VALID,22.3144,VALID,64,VALID,0,
2011-11-10, 01:16:04,VALID,999.815,VALID,0,VALID,93.8977,VALID,0,VALID,22.3356,VALID,64,VALID,0,
2011-11-10, 01:17:04,VALID,999.789,VALID,0,VALID,93.9054,VALID,0,VALID,22.3161,VALID,64,VALID,0,
2011-11-10, 01:18:04,VALID,999.81,VALID,0,VALID,93.9206,VALID,0.104696,VALID,22.2966,VALID,64,VALID,0,
2011-11-10, 01:19:04,VALID,999.827,VALID,0,VALID,93.913,VALID,0,VALID,22.3161,VALID,64,VALID,0.128516,
2011-11-10, 01:20:04,VALID,999.805,VALID,0,VALID,93.9435,VALID,0,VALID,22.3356,VALID,64,VALID,0,
2011-11-10, 01:21:04,VALID,999.824,VALID,0,VALID,93.9664,VALID,0.104696,VALID,22.3356,VALID,64,VALID,0,
2011-11-10, 01:22:04,VALID,999.799,VALID,0,VALID,93.9588,VALID,0,VALID,22.3356,VALID,64,VALID,0,
2011-11-10, 01:23:04,VALID,999.736,VALID,0,VALID,93.9817,VALID,0,VALID,22.3373,VALID,64,VALID,0.714453,
2011-11-10, 01:24:04,VALID,999.726,VALID,0,VALID,93.9817,VALID,0,VALID,22.2771,VALID,64,VALID,0.947656,
2011-11-10, 01:25:04,VALID,999.72,VALID,0,VALID,93.9511,VALID,0,VALID,22.2576,VALID,64,VALID,0.776953,
2011-11-10, 01:26:04,VALID,999.718,VALID,0,VALID,93.9511,VALID,0,VALID,22.2397,VALID,64,VALID,0.451953,
2011-11-10, 01:27:04,VALID,999.724,VALID,0,VALID,93.913,VALID,0,VALID,22.199,VALID,64,VALID,0.4125,
2011-11-10, 01:28:04,VALID,999.743,VALID,0,VALID,93.913,VALID,0,VALID,22.2202,VALID,64,VALID,0.373047,
2011-11-10, 01:29:04,VALID,999.711,VALID,0,VALID,93.9054,VALID,0,VALID,22.2007,VALID,64,VALID,0.236719,
2011-11-10, 01:30:04,VALID,999.734,VALID,0,VALID,93.8825,VALID,0,VALID,22.1812,VALID,64,VALID,0.457031,
2011-11-10, 01:31:04,VALID,999.751,VALID,0,VALID,93.9054,VALID,0,VALID,22.1812,VALID,64,VALID,0.666016,
2011-11-10, 01:32:04,VALID,999.714,VALID,0,VALID,93.9054,VALID,0,VALID,22.2202,VALID,64,VALID,0.726953,
2011-11-10, 01:33:04,VALID,999.696,VALID,0,VALID,93.9435,VALID,0,VALID,22.2788,VALID,64,VALID,0.714453,
2011-11-10, 01:34:04,VALID,999.734,VALID,0,VALID,93.974,VALID,0,VALID,22.2592,VALID,64,VALID,0.610937,
2011-11-10, 01:35:04,VALID,999.735,VALID,0,VALID,93.9588,VALID,0,VALID,22.2397,VALID,64,VALID,0.477344,
2011-11-10, 01:36:04,VALID,999.738,VALID,0,VALID,93.9359,VALID,0,VALID,22.199,VALID,64,VALID,0.522266,
2011-11-10, 01:37:04,VALID,999.725,VALID,0,VALID,93.9359,VALID,0,VALID,22.2007,VALID,64,VALID,0.559766,
2011-11-10, 01:38:04,VALID,999.721,VALID,0,VALID,93.913,VALID,0,VALID,22.1974,VALID,64,VALID,0.492188,
2011-11-10, 01:39:04,VALID,999.717,VALID,0,VALID,93.913,VALID,0.104696,VALID,22.199,VALID,64,VALID,0.449609,
2011-11-10, 01:40:04,VALID,999.728,VALID,0,VALID,93.8825,VALID,0,VALID,22.1584,VALID,64,VALID,0.483203,
2011-11-10, 01:41:04,VALID,999.724,VALID,0,VALID,93.8825,VALID,0,VALID,22.16,VALID,64,VALID,0.662109,
2011-11-10, 01:42:04,VALID,999.712,VALID,0,VALID,93.8901,VALID,0,VALID,22.199,VALID,64,VALID,0.763672,
2011-11-10, 01:43:04,VALID,999.671,VALID,0,VALID,93.8825,VALID,0,VALID,22.2186,VALID,64,VALID,0.764453,
2011-11-10, 01:44:04,VALID,999.664,VALID,0,VALID,93.9206,VALID,0,VALID,22.2169,VALID,64,VALID,0.623828,
2011-11-10, 01:45:04,VALID,999.661,VALID,0,VALID,93.913,VALID,0.104696,VALID,22.2576,VALID,64,VALID,0.463672,
2011-11-10, 01:46:04,VALID,999.672,VALID,0,VALID,93.913,VALID,0,VALID,22.2559,VALID,64,VALID,0.381641,
2011-11-10, 01:47:04,VALID,999.68,VALID,0,VALID,93.9283,VALID,0,VALID,22.2771,VALID,64,VALID,0.347266,
2011-11-10, 01:48:04,VALID,999.674,VALID,0,VALID,93.9435,VALID,0,VALID,22.2966,VALID,64,VALID,0.321484,
2011-11-10, 01:49:04,VALID,999.667,VALID,0,VALID,93.9435,VALID,0,VALID,22.2966,VALID,64,VALID,0,
2011-11-10, 01:50:04,VALID,999.683,VALID,0,VALID,93.9359,VALID,0,VALID,22.2364,VALID,64,VALID,0,
2011-11-10, 01:51:04,VALID,999.668,VALID,0,VALID,93.9206,VALID,0,VALID,22.2381,VALID,64,VALID,0,
2011-11-10, 01:52:04,VALID,999.687,VALID,0,VALID,93.9283,VALID,0,VALID,22.2576,VALID,64,VALID,0,
2011-11-10, 01:53:04,VALID,999.674,VALID,0,VALID,93.913,VALID,0,VALID,22.2381,VALID,64,VALID,0,
2011-11-10, 01:54:04,VALID,999.651,VALID,0,VALID,93.9511,VALID,0,VALID,22.2364,VALID,64,VALID,0,
2011-11-10, 01:55:04,VALID,999.627,VALID,0,VALID,93.9206,VALID,0,VALID,22.2381,VALID,98,VALID,0.762109,
2011-11-10, 01:56:04,VALID,999.63,VALID,0,VALID,93.9206,VALID,0,VALID,22.2169,VALID,111,VALID,0.841016,
2011-11-10, 01:57:04,VALID,999.618,VALID,0,VALID,93.9206,VALID,0,VALID,22.2576,VALID,125,VALID,0.975391,
2011-11-10, 01:58:04,VALID,999.646,VALID,0,VALID,93.8977,VALID,0,VALID,22.2966,VALID,132,VALID,0.748828,
2011-11-10, 01:59:04,VALID,999.627,VALID,0,VALID,93.8748,VALID,0,VALID,22.3144,VALID,132,VALID,0.628906,
2011-11-10, 02:00:04,VALID,999.628,VALID,0,VALID,93.8596,VALID,0,VALID,22.3551,VALID,132,VALID,0.164844,
2011-11-10, 02:01:04,VALID,999.644,VALID,0,VALID,93.8062,VALID,0,VALID,22.3534,VALID,132,VALID,0.185937,
2011-11-10, 02:02:04,VALID,999.617,VALID,0,VALID,93.7604,VALID,0,VALID,22.3534,VALID,132,VALID,0.00195313,
2011-11-10, 02:03:04,VALID,999.608,VALID,0,VALID,93.7223,VALID,0,VALID,22.3534,VALID,132,VALID,0,
2011-11-10, 02:04:04,VALID,999.63,VALID,0,VALID,93.6994,VALID,0,VALID,22.3924,VALID,132,VALID,0,
2011-11-10, 02:05:04,VALID,999.611,VALID,0,VALID,93.6765,VALID,0,VALID,22.4119,VALID,132,VALID,0.475391,
2011-11-10, 02:06:04,VALID,999.627,VALID,0,VALID,93.6383,VALID,0,VALID,22.4721,VALID,132,VALID,0.611719,
2011-11-10, 02:07:04,VALID,999.608,VALID,0,VALID,93.5697,VALID,0,VALID,22.4721,VALID,132,VALID,0.496875,
2011-11-10, 02:08:04,VALID,999.616,VALID,0,VALID,93.4247,VALID,0,VALID,22.4331,VALID,132,VALID,0.345313,
2011-11-10, 02:09:04,VALID,999.633,VALID,0,VALID,93.295,VALID,0.104696,VALID,22.4136,VALID,132,VALID,0.162109,
2011-11-10, 02:10:04,VALID,999.624,VALID,0,VALID,93.1348,VALID,0,VALID,22.3551,VALID,132,VALID,0.150391,
2011-11-10, 02:11:04,VALID,999.601,VALID,0,VALID,93.0661,VALID,0,VALID,22.3356,VALID,132,VALID,0.113672,
2011-11-10, 02:12:04,VALID,999.609,VALID,0,VALID,93.089,VALID,0,VALID,22.3144,VALID,132,VALID,0,
2011-11-10, 02:13:04,VALID,999.59,VALID,0,VALID,93.15,VALID,0.104696,VALID,22.3551,VALID,132,VALID,0.00195313,
2011-11-10, 02:14:04,VALID,999.591,VALID,0,VALID,93.2568,VALID,0,VALID,22.3746,VALID,132,VALID,0,
2011-11-10, 02:15:04,VALID,999.578,VALID,0,VALID,93.2492,VALID,0,VALID,22.3746,VALID,132,VALID,0,
2011-11-10, 02:16:04,VALID,999.551,VALID,0,VALID,93.295,VALID,0,VALID,22.3551,VALID,132,VALID,0,
2011-11-10, 02:17:04,VALID,999.57,VALID,0,VALID,93.3103,VALID,0,VALID,22.3339,VALID,132,VALID,0,
2011-11-10, 02:18:04,VALID,999.58,VALID,0,VALID,93.3484,VALID,0,VALID,22.3534,VALID,132,VALID,0,
2011-11-10, 02:19:04,VALID,999.546,VALID,0,VALID,93.3713,VALID,0.104696,VALID,22.3746,VALID,132,VALID,0.151953,
2011-11-10, 02:20:04,VALID,999.527,VALID,0,VALID,93.4094,VALID,0,VALID,22.3339,VALID,132,VALID,0.491406,
2011-11-10, 02:21:04,VALID,999.549,VALID,0,VALID,93.3637,VALID,0,VALID,22.3356,VALID,103,VALID,0.610547,
2011-11-10, 02:22:04,VALID,999.543,VALID,0,VALID,93.3103,VALID,0,VALID,22.2966,VALID,98,VALID,0.752344,
2011-11-10, 02:23:04,VALID,999.556,VALID,0,VALID,93.295,VALID,0,VALID,22.2381,VALID,58,VALID,0.969531,
2011-11-10, 02:24:04,VALID,999.55,VALID,0,VALID,93.2797,VALID,0.104696,VALID,22.1974,VALID,27,VALID,0.934766,
2011-11-10, 02:25:04,VALID,999.558,VALID,0,VALID,93.2797,VALID,0,VALID,22.16,VALID,26,VALID,0.908984,
2011-11-10, 02:26:04,VALID,999.522,VALID,0,VALID,93.3713,VALID,0,VALID,22.1389,VALID,26,VALID,0.852734,
2011-11-10, 02:27:04,VALID,999.53,VALID,0,VALID,93.4323,VALID,0,VALID,22.1194,VALID,26,VALID,0.566016,
2011-11-10, 02:28:04,VALID,999.523,VALID,0,VALID,93.4323,VALID,0,VALID,22.0803,VALID,26,VALID,0.489453,
2011-11-10, 02:29:04,VALID,999.544,VALID,0,VALID,93.4476,VALID,0,VALID,22.0625,VALID,26,VALID,0.317969,
2011-11-10, 02:30:04,VALID,999.512,VALID,0,VALID,93.4628,VALID,0,VALID,22.0218,VALID,26,VALID,0.276172,
2011-11-10, 02:31:04,VALID,999.495,VALID,0,VALID,93.44,VALID,0,VALID,21.9828,VALID,26,VALID,0.287109,
2011-11-10, 02:32:04,VALID,999.496,VALID,0,VALID,93.44,VALID,0,VALID,21.965,VALID,26,VALID,0.4125,
2011-11-10, 02:33:04,VALID,999.491,VALID,0,VALID,93.4857,VALID,0,VALID,21.9243,VALID,26,VALID,0.360547,
2011-11-10, 02:34:04,VALID,999.48,VALID,0,VALID,93.5391,VALID,0,VALID,21.9243,VALID,26,VALID,0.510156,
2011-11-10, 02:35:04,VALID,999.476,VALID,0,VALID,93.5926,VALID,0,VALID,21.926,VALID,26,VALID,0.524609,
2011-11-10, 02:36:04,VALID,999.483,VALID,0,VALID,93.646,VALID,0,VALID,21.9048,VALID,26,VALID,0.5375,
2011-11-10, 02:37:04,VALID,999.49,VALID,0,VALID,93.7146,VALID,0,VALID,21.9243,VALID,26,VALID,0.464453,
2011-11-10, 02:38:04,VALID,999.492,VALID,0,VALID,93.7451,VALID,0,VALID,21.9065,VALID,26,VALID,0.33125,
2011-11-10, 02:39:04,VALID,999.471,VALID,0,VALID,93.7528,VALID,0,VALID,21.8887,VALID,26,VALID,0,
2011-11-10, 02:40:04,VALID,999.457,VALID,0,VALID,93.7757,VALID,0,VALID,21.8496,VALID,26,VALID,0.0535156,
2011-11-10, 02:41:04,VALID,999.469,VALID,0,VALID,93.7757,VALID,0,VALID,21.8496,VALID,26,VALID,0,
2011-11-10, 02:42:04,VALID,999.476,VALID,0,VALID,93.7909,VALID,0,VALID,21.8073,VALID,26,VALID,0,
2011-11-10, 02:43:04,VALID,999.48,VALID,0,VALID,93.8443,VALID,0,VALID,21.8285,VALID,26,VALID,0,
2011-11-10, 02:44:04,VALID,999.494,VALID,0,VALID,93.8901,VALID,0,VALID,21.848,VALID,26,VALID,0,
2011-11-10, 02:45:04,VALID,999.465,VALID,0,VALID,93.9359,VALID,0,VALID,21.848,VALID,26,VALID,0,
2011-11-10, 02:46:04,VALID,999.468,VALID,0,VALID,93.9511,VALID,0,VALID,21.8675,VALID,26,VALID,0,
2011-11-10, 02:47:04,VALID,999.486,VALID,0,VALID,93.9893,VALID,0,VALID,21.8675,VALID,26,VALID,0,
2011-11-10, 02:48:04,VALID,999.438,VALID,0,VALID,94.0045,VALID,0,VALID,21.8268,VALID,26,VALID,0,
2011-11-10, 02:49:04,VALID,999.42,VALID,0,VALID,94.0122,VALID,0,VALID,21.8285,VALID,26,VALID,0,
2011-11-10, 02:50:04,VALID,999.438,VALID,0,VALID,94.0351,VALID,0,VALID,21.8285,VALID,26,VALID,0,
2011-11-10, 02:51:04,VALID,999.448,VALID,0,VALID,94.0656,VALID,0,VALID,21.848,VALID,26,VALID,0,
2011-11-10, 02:52:04,VALID,999.453,VALID,0,VALID,94.0808,VALID,0,VALID,21.8285,VALID,26,VALID,0.00625,
2011-11-10, 02:53:04,VALID,999.482,VALID,0,VALID,94.1037,VALID,0,VALID,21.8658,VALID,26,VALID,0.735156,
2011-11-10, 02:54:04,VALID,999.474,VALID,0,VALID,94.1266,VALID,0,VALID,21.9065,VALID,26,VALID,0.628516,
2011-11-10, 02:55:04,VALID,999.455,VALID,0,VALID,94.1724,VALID,0,VALID,21.9048,VALID,26,VALID,0.46875,
2011-11-10, 02:56:04,VALID,999.457,VALID,0,VALID,94.1724,VALID,0,VALID,21.9455,VALID,26,VALID,0.428125,
2011-11-10, 02:57:04,VALID,999.458,VALID,0,VALID,94.1877,VALID,0,VALID,21.9065,VALID,26,VALID,0.364453,
2011-11-10, 02:58:04,VALID,999.464,VALID,0,VALID,94.1877,VALID,0,VALID,21.8285,VALID,26,VALID,0.246875,
2011-11-10, 02:59:04,VALID,999.462,VALID,0,VALID,94.1648,VALID,0,VALID,21.77,VALID,26,VALID,0.258984,
2011-11-10, 03:00:04,VALID,999.441,VALID,0,VALID,94.1419,VALID,0,VALID,21.731,VALID,26,VALID,0.338672,
2011-11-10, 03:01:04,VALID,999.459,VALID,0,VALID,94.1266,VALID,0,VALID,21.6725,VALID,26,VALID,0.35,
2011-11-10, 03:02:04,VALID,999.474,VALID,0,VALID,94.1266,VALID,0.104696,VALID,21.6318,VALID,26,VALID,0.434766,
2011-11-10, 03:03:04,VALID,999.452,VALID,0,VALID,94.1571,VALID,0,VALID,21.6903,VALID,26,VALID,0.516797,
2011-11-10, 03:04:04,VALID,999.456,VALID,0,VALID,94.1877,VALID,0,VALID,21.7505,VALID,26,VALID,0.518359,
2011-11-10, 03:05:04,VALID,999.448,VALID,0,VALID,94.2029,VALID,0,VALID,21.77,VALID,26,VALID,0.512109,
2011-11-10, 03:06:04,VALID,999.465,VALID,0,VALID,94.2411,VALID,0,VALID,21.7878,VALID,26,VALID,0.466406,
2011-11-10, 03:07:04,VALID,999.468,VALID,0,VALID,94.2411,VALID,0,VALID,21.7683,VALID,26,VALID,0.353906,
2011-11-10, 03:08:04,VALID,999.481,VALID,0,VALID,94.2563,VALID,0,VALID,21.7895,VALID,26,VALID,0.243359,
2011-11-10, 03:09:04,VALID,999.499,VALID,0,VALID,94.2868,VALID,0,VALID,21.7895,VALID,26,VALID,0.332031,
2011-11-10, 03:10:04,VALID,999.467,VALID,0,VALID,94.264,VALID,0,VALID,21.7911,VALID,26,VALID,0,
2011-11-10, 03:11:04,VALID,999.507,VALID,0,VALID,94.2868,VALID,0,VALID,21.7521,VALID,26,VALID,0,
2011-11-10, 03:12:04,VALID,999.511,VALID,0,VALID,94.3097,VALID,0,VALID,21.7521,VALID,26,VALID,0,
2011-11-10, 03:13:04,VALID,999.553,VALID,0,VALID,94.3097,VALID,0,VALID,21.7326,VALID,26,VALID,0,
2011-11-10, 03:14:04,VALID,999.538,VALID,0,VALID,94.3174,VALID,0,VALID,21.731,VALID,26,VALID,0,
2011-11-10, 03:15:04,VALID,999.56,VALID,0,VALID,94.3174,VALID,0,VALID,21.7326,VALID,26,VALID,0,
2011-11-10, 03:16:04,VALID,999.516,VALID,0,VALID,94.3174,VALID,0,VALID,21.7131,VALID,26,VALID,0,
2011-11-10, 03:17:04,VALID,999.521,VALID,0,VALID,94.3326,VALID,0,VALID,21.692,VALID,26,VALID,0,
2011-11-10, 03:18:04,VALID,999.54,VALID,0,VALID,94.325,VALID,0,VALID,21.6741,VALID,26,VALID,0,
2011-11-10, 03:19:04,VALID,999.509,VALID,0,VALID,94.3555,VALID,0,VALID,21.6936,VALID,26,VALID,0,
2011-11-10, 03:20:04,VALID,999.53,VALID,0,VALID,94.3479,VALID,0,VALID,21.6936,VALID,26,VALID,0,
2011-11-10, 03:21:04,VALID,999.504,VALID,0,VALID,94.3708,VALID,0,VALID,21.6936,VALID,26,VALID,0,
2011-11-10, 03:22:04,VALID,999.536,VALID,0,VALID,94.3555,VALID,0,VALID,21.692,VALID,26,VALID,0,
2011-11-10, 03:23:04,VALID,999.545,VALID,0,VALID,94.3784,VALID,0,VALID,21.6351,VALID,26,VALID,0,
2011-11-10, 03:24:04,VALID,999.534,VALID,0,VALID,94.3784,VALID,0,VALID,21.6156,VALID,26,VALID,0,
2011-11-10, 03:25:04,VALID,999.529,VALID,0,VALID,94.3708,VALID,0,VALID,21.6156,VALID,26,VALID,0,
2011-11-10, 03:26:04,VALID,999.548,VALID,0,VALID,94.3708,VALID,0,VALID,21.6156,VALID,26,VALID,0,
2011-11-10, 03:27:04,VALID,999.579,VALID,0,VALID,94.3708,VALID,0,VALID,21.6351,VALID,26,VALID,0,
2011-11-10, 03:28:04,VALID,999.56,VALID,0,VALID,94.3937,VALID,0,VALID,21.6351,VALID,26,VALID,0,
2011-11-10, 03:29:04,VALID,999.582,VALID,0,VALID,94.386,VALID,0,VALID,21.5945,VALID,26,VALID,0,
2011-11-10, 03:30:04,VALID,999.561,VALID,0,VALID,94.3937,VALID,0,VALID,21.5961,VALID,26,VALID,0,
2011-11-10, 03:31:04,VALID,999.567,VALID,0,VALID,94.4013,VALID,0,VALID,21.6741,VALID,26,VALID,0,
2011-11-10, 03:32:04,VALID,999.566,VALID,0,VALID,94.4242,VALID,0,VALID,21.6741,VALID,26,VALID,0,
2011-11-10, 03:33:04,VALID,999.576,VALID,0,VALID,94.4165,VALID,0,VALID,21.653,VALID,26,VALID,0,
2011-11-10, 03:34:04,VALID,999.596,VALID,0,VALID,94.4471,VALID,0,VALID,21.6156,VALID,26,VALID,0,
2011-11-10, 03:35:04,VALID,999.648,VALID,0,VALID,94.4242,VALID,0,VALID,21.575,VALID,26,VALID,0.534375,
2011-11-10, 03:36:04,VALID,999.621,VALID,0,VALID,94.4165,VALID,0,VALID,21.5571,VALID,26,VALID,0.358203,
2011-11-10, 03:37:04,VALID,999.649,VALID,0,VALID,94.4165,VALID,0,VALID,21.5181,VALID,26,VALID,0.163281,
2011-11-10, 03:38:04,VALID,999.678,VALID,0,VALID,94.4165,VALID,0,VALID,21.497,VALID,26,VALID,0.0148437,
2011-11-10, 03:39:04,VALID,999.638,VALID,0,VALID,94.4471,VALID,0,VALID,21.4775,VALID,26,VALID,0,
2011-11-10, 03:40:04,VALID,999.718,VALID,0,VALID,94.4165,VALID,0,VALID,21.4775,VALID,26,VALID,0,
2011-11-10, 03:41:04,VALID,999.674,VALID,0,VALID,94.4394,VALID,0,VALID,21.497,VALID,26,VALID,0.244922,
2011-11-10, 03:42:04,VALID,999.691,VALID,0,VALID,94.4547,VALID,0,VALID,21.536,VALID,26,VALID,0.326953,
2011-11-10, 03:43:04,VALID,999.655,VALID,0,VALID,94.4394,VALID,0,VALID,21.5555,VALID,26,VALID,0.170703,
2011-11-10, 03:44:04,VALID,999.703,VALID,0,VALID,94.4547,VALID,0,VALID,21.5945,VALID,26,VALID,0.36875,
2011-11-10, 03:45:04,VALID,999.7,VALID,0,VALID,94.4623,VALID,0,VALID,21.6123,VALID,26,VALID,0.266797,
2011-11-10, 03:46:04,VALID,999.721,VALID,0,VALID,94.4623,VALID,0,VALID,21.614,VALID,26,VALID,0.00195313,
2011-11-10, 03:47:04,VALID,999.743,VALID,0,VALID,94.47,VALID,0.104696,VALID,21.614,VALID,26,VALID,0.276953,
2011-11-10, 03:48:04,VALID,999.762,VALID,0,VALID,94.4776,VALID,0,VALID,21.5945,VALID,26,VALID,0,
2011-11-10, 03:49:04,VALID,999.745,VALID,0,VALID,94.4928,VALID,0,VALID,21.614,VALID,26,VALID,0,